Home   Weather   Kailua-Kona   Past weeks

Flag for USA Past Weather in Kailua-Kona, Hawaii, USA — Yesterday and Last 2 Weeks

Now
79 °F

Rain. Partly cloudy.


Feels Like: 82 °F
Forecast: 71 / 81 °F
Wind: No wind

Location: Keahole Airport

Current Time: Sep 24, 2016 at 9:23:10 PM

Latest Report: Sep 24, 2016 at 8:53 PM


Visibility: 7 mi

Pressure: 30.02 "Hg

Humidity: 82%

Dew Point: 73 °F

Location of Kailua-KonaLocation

Past Weather in Kailua-Kona — Graph

°F

Kailua-Kona Temperature Yesterday

Maximum temperature yesterday: 87 °F (at 12:53 PM)
Minimum temperature yesterday: 77 °F (at 3:53 AM)
Average temperature yesterday: 82 °F

High & Low Weather Summary for the Past Weeks

 TemperatureHumidityPressure
High89 °F (Sep 16, 12:53 PM)94% (Sep 10, 7:53 PM)30.03 "Hg (Sep 10, 7:53 PM)
Low74 °F (Sep 19, 5:53 AM)49% (Sep 9, 8:53 PM)29.86 "Hg (Sep 10, 2:53 PM)
Average82 °F71%29.94 "Hg
* Reported Sep 9 7:53 PM — Sep 24 7:53 PM, Kailua-Kona, Weather by CustomWeather, © 2016

Note: Actual official high and low records may vary slightly from our data, if they occured in-between our weather recording intervals... More about our weather records

Advertising

Kailua-Kona Weather History for the Previous 24 Hours

Scroll right to see more
 ConditionsComfort  
Time TempWeatherWind HumidityBarometerVisibility
7:53 PM
Sat, Sep 24
79 °FRain. Partly cloudy.16 mph84%30.00 "Hg4 mi
6:53 PM84 °FPartly cloudy.8 mph74%29.97 "Hg10 mi
5:53 PM85 °FMore clouds than sun.8 mph70%29.94 "Hg10 mi
4:53 PM86 °FPartly sunny.9 mph65%29.93 "Hg10 mi
3:53 PM87 °FScattered clouds.10 mph65%29.91 "Hg10 mi
2:53 PM87 °FSunny.10 mph65%29.91 "Hg10 mi
1:53 PM88 °FSunny.10 mph65%29.92 "Hg10 mi
12:53 PM88 °FSunny.14 mph65%29.94 "Hg10 mi
11:53 AM87 °FSunny.14 mph67%29.96 "Hg10 mi
10:53 AM87 °FSunny.14 mph67%29.98 "Hg10 mi
9:53 AM86 °FSunny.13 mph67%29.98 "Hg10 mi
8:53 AM86 °FSunny.10 mph61%29.98 "Hg10 mi
7:53 AM84 °FSunny.9 mph61%29.96 "Hg10 mi
6:53 AM80 °FSunny.6 mph71%29.95 "Hg10 mi
5:53 AM79 °FClear.6 mph72%29.94 "Hg10 mi
4:53 AM80 °FClear.7 mph69%29.94 "Hg10 mi
3:53 AM79 °FClear.7 mph74%29.93 "Hg10 mi
2:53 AM80 °FClear.8 mph76%29.94 "Hg10 mi
1:53 AM80 °FClear.9 mph74%29.95 "Hg10 mi
12:53 AM81 °FClear.7 mph77%29.98 "Hg10 mi
11:53 PM
Fri, Sep 23
80 °FClear.3 mph74%29.98 "Hg10 mi
10:53 PM81 °FClear.No wind74%29.99 "Hg10 mi
9:53 PM82 °FClear.5 mph77%30.00 "Hg10 mi
Weather by CustomWeather, © 2016

See weather overviewHow to use our weather pages